Year,Month,Day,Hour,Minute,Value (Times are PST for temperature in C)
2010,05,07,00,00,7.70
2010,05,07,00,01,7.70
2010,05,07,00,02,7.80
2010,05,07,00,03,7.70
2010,05,07,00,04,7.80
2010,05,07,00,05,7.80
2010,05,07,00,06,7.80
2010,05,07,00,07,7.80
2010,05,07,00,08,7.80
2010,05,07,00,09,7.80
2010,05,07,00,10,7.80
2010,05,07,00,11,7.80
2010,05,07,00,12,7.80
2010,05,07,00,13,7.80
2010,05,07,00,14,7.80
2010,05,07,00,15,7.80
2010,05,07,00,16,7.80
2010,05,07,00,17,7.80
2010,05,07,00,18,7.80
2010,05,07,00,19,7.80
2010,05,07,00,20,7.80
2010,05,07,00,21,7.80
2010,05,07,00,22,7.80
2010,05,07,00,23,7.80
2010,05,07,00,24,7.80
2010,05,07,00,25,7.80
2010,05,07,00,26,7.80
2010,05,07,00,27,7.80
2010,05,07,00,28,7.80
2010,05,07,00,29,7.80
2010,05,07,00,30,7.80
2010,05,07,00,31,7.80
2010,05,07,00,32,7.80
2010,05,07,00,33,7.80
2010,05,07,00,34,7.80
2010,05,07,00,35,7.80
2010,05,07,00,36,7.80
2010,05,07,00,37,7.80
2010,05,07,00,38,7.80
2010,05,07,00,39,7.80
2010,05,07,00,40,7.80
2010,05,07,00,41,7.80
2010,05,07,00,42,7.80
2010,05,07,00,43,7.80
2010,05,07,00,44,7.80
2010,05,07,00,45,7.80
2010,05,07,00,46,7.80
2010,05,07,00,47,7.80
2010,05,07,00,48,7.80
2010,05,07,00,49,7.90
2010,05,07,00,50,7.90
2010,05,07,00,51,7.90
2010,05,07,00,52,7.90
2010,05,07,00,53,7.90
2010,05,07,00,54,7.90
2010,05,07,00,55,7.90
2010,05,07,00,56,7.90
2010,05,07,00,57,7.90
2010,05,07,00,58,7.80
2010,05,07,00,59,7.80
2010,05,07,01,00,7.80
2010,05,07,01,01,7.80
2010,05,07,01,02,7.80
2010,05,07,01,03,7.80
2010,05,07,01,04,7.80
2010,05,07,01,05,7.80
2010,05,07,01,06,7.70
2010,05,07,01,07,7.70
2010,05,07,01,08,7.70
2010,05,07,01,09,7.70
2010,05,07,01,10,7.70
2010,05,07,01,11,7.70
2010,05,07,01,12,7.70
2010,05,07,01,13,7.70
2010,05,07,01,14,7.60
2010,05,07,01,15,7.60
2010,05,07,01,16,7.60
2010,05,07,01,17,7.60
2010,05,07,01,18,7.60
2010,05,07,01,19,7.60
2010,05,07,01,20,7.50
2010,05,07,01,21,7.50
2010,05,07,01,22,7.50
2010,05,07,01,23,7.50
2010,05,07,01,24,7.40
2010,05,07,01,25,7.40
2010,05,07,01,26,7.40
2010,05,07,01,27,7.40
2010,05,07,01,28,7.40
2010,05,07,01,29,7.40
2010,05,07,01,30,7.30
2010,05,07,01,31,7.30
2010,05,07,01,32,7.30
2010,05,07,01,33,7.30
2010,05,07,01,34,7.30
2010,05,07,01,35,7.20
2010,05,07,01,36,7.20
2010,05,07,01,37,7.20
2010,05,07,01,38,7.20
2010,05,07,01,39,7.20
2010,05,07,01,40,7.20
2010,05,07,01,41,7.10
2010,05,07,01,42,7.10
2010,05,07,01,43,7.10
2010,05,07,01,44,7.10
2010,05,07,01,45,7.10
2010,05,07,01,46,7.00
2010,05,07,01,47,7.00
2010,05,07,01,48,7.00
2010,05,07,01,49,7.00
2010,05,07,01,50,7.00
2010,05,07,01,51,6.90
2010,05,07,01,52,6.90
2010,05,07,01,53,6.90
2010,05,07,01,54,6.90
2010,05,07,01,55,6.90
2010,05,07,01,56,6.90
2010,05,07,01,57,6.90
2010,05,07,01,58,6.90
2010,05,07,01,59,6.90
2010,05,07,02,00,6.90
2010,05,07,02,01,6.90
2010,05,07,02,02,6.80
2010,05,07,02,03,6.80
2010,05,07,02,04,6.80
2010,05,07,02,05,6.80
2010,05,07,02,06,6.80
2010,05,07,02,07,6.80
2010,05,07,02,08,6.80
2010,05,07,02,09,6.80
2010,05,07,02,10,6.80
2010,05,07,02,11,6.80
2010,05,07,02,12,6.70
2010,05,07,02,13,6.70
2010,05,07,02,14,6.70
2010,05,07,02,15,6.70
2010,05,07,02,16,6.70
2010,05,07,02,17,6.70
2010,05,07,02,18,6.70
2010,05,07,02,19,6.60
2010,05,07,02,20,6.60
2010,05,07,02,21,6.60
2010,05,07,02,22,6.60
2010,05,07,02,23,6.60
2010,05,07,02,24,6.60
2010,05,07,02,25,6.60
2010,05,07,02,26,6.60
2010,05,07,02,27,6.60
2010,05,07,02,28,6.60
2010,05,07,02,29,6.50
2010,05,07,02,30,6.50
2010,05,07,02,31,6.50
2010,05,07,02,32,6.50
2010,05,07,02,33,6.50
2010,05,07,02,34,6.40
2010,05,07,02,35,6.40
2010,05,07,02,36,6.40
2010,05,07,02,37,6.40
2010,05,07,02,38,6.40
2010,05,07,02,39,6.40
2010,05,07,02,40,6.40
2010,05,07,02,41,6.40
2010,05,07,02,42,6.30
2010,05,07,02,43,6.30
2010,05,07,02,44,6.30
2010,05,07,02,45,6.30
2010,05,07,02,46,6.30
2010,05,07,02,47,6.30
2010,05,07,02,48,6.30
2010,05,07,02,49,6.30
2010,05,07,02,50,6.30
2010,05,07,02,51,6.30
2010,05,07,02,52,6.30
2010,05,07,02,53,6.20
2010,05,07,02,54,6.20
2010,05,07,02,55,6.20
2010,05,07,02,56,6.20
2010,05,07,02,57,6.20
2010,05,07,02,58,6.20
2010,05,07,02,59,6.20
2010,05,07,03,00,6.20
2010,05,07,03,01,6.10
2010,05,07,03,02,6.10
2010,05,07,03,03,6.10
2010,05,07,03,04,6.10
2010,05,07,03,05,6.10
2010,05,07,03,06,6.10
2010,05,07,03,07,6.10
2010,05,07,03,08,6.10
2010,05,07,03,09,6.10
2010,05,07,03,10,6.10
2010,05,07,03,11,6.10
2010,05,07,03,12,6.10
2010,05,07,03,13,6.10
2010,05,07,03,14,6.10
2010,05,07,03,15,6.10
2010,05,07,03,16,6.00
2010,05,07,03,17,6.00
2010,05,07,03,18,6.00
2010,05,07,03,19,6.00
2010,05,07,03,20,6.00
2010,05,07,03,21,6.00
2010,05,07,03,22,6.00
2010,05,07,03,23,6.00
2010,05,07,03,24,6.00
2010,05,07,03,25,6.00
2010,05,07,03,26,6.00
2010,05,07,03,27,6.00
2010,05,07,03,28,6.00
2010,05,07,03,29,5.90
2010,05,07,03,30,5.90
2010,05,07,03,31,5.90
2010,05,07,03,32,5.90
2010,05,07,03,33,5.90
2010,05,07,03,34,5.90
2010,05,07,03,35,5.90
2010,05,07,03,36,5.90
2010,05,07,03,37,5.90
2010,05,07,03,38,5.90
2010,05,07,03,39,5.90
2010,05,07,03,40,5.90
2010,05,07,03,41,5.90
2010,05,07,03,42,5.90
2010,05,07,03,43,5.90
2010,05,07,03,44,5.80
2010,05,07,03,45,5.80
2010,05,07,03,46,5.80
2010,05,07,03,47,5.80
2010,05,07,03,48,5.80
2010,05,07,03,49,5.80
2010,05,07,03,50,5.80
2010,05,07,03,51,5.80
2010,05,07,03,52,5.80
2010,05,07,03,53,5.80
2010,05,07,03,54,5.80
2010,05,07,03,55,5.70
2010,05,07,03,56,5.70
2010,05,07,03,57,5.70
2010,05,07,03,58,5.70
2010,05,07,03,59,5.70
2010,05,07,04,00,5.70
2010,05,07,04,01,5.70
2010,05,07,04,02,5.70
2010,05,07,04,03,5.70
2010,05,07,04,04,5.70
2010,05,07,04,05,5.70
2010,05,07,04,06,5.70
2010,05,07,04,07,5.70
2010,05,07,04,08,5.70
2010,05,07,04,09,5.70
2010,05,07,04,10,5.70
2010,05,07,04,11,5.70
2010,05,07,04,12,5.70
2010,05,07,04,13,5.60
2010,05,07,04,14,5.60
2010,05,07,04,15,5.60
2010,05,07,04,16,5.60
2010,05,07,04,17,5.60
2010,05,07,04,18,5.60
2010,05,07,04,19,5.60
2010,05,07,04,20,5.60
2010,05,07,04,21,5.60
2010,05,07,04,22,5.60
2010,05,07,04,23,5.60
2010,05,07,04,24,5.60
2010,05,07,04,25,5.60
2010,05,07,04,26,5.60
2010,05,07,04,27,5.60
2010,05,07,04,28,5.60
2010,05,07,04,29,5.60
2010,05,07,04,30,5.60
2010,05,07,04,31,5.60
2010,05,07,04,32,5.60
2010,05,07,04,33,5.60
2010,05,07,04,34,5.60
2010,05,07,04,35,5.60
2010,05,07,04,36,5.60
2010,05,07,04,37,5.50
2010,05,07,04,38,5.50
2010,05,07,04,39,5.50
2010,05,07,04,40,5.50
2010,05,07,04,41,5.50
2010,05,07,04,42,5.50
2010,05,07,04,43,5.50
2010,05,07,04,44,5.50
2010,05,07,04,45,5.50
2010,05,07,04,46,5.60
2010,05,07,04,47,5.50
2010,05,07,04,48,5.50
2010,05,07,04,49,5.50
2010,05,07,04,50,5.50
2010,05,07,04,51,5.50
2010,05,07,04,52,5.50
2010,05,07,04,53,5.50
2010,05,07,04,54,5.50
2010,05,07,04,55,5.50
2010,05,07,04,56,5.50
2010,05,07,04,57,5.40
2010,05,07,04,58,5.40
2010,05,07,04,59,5.40
2010,05,07,05,00,5.40
2010,05,07,05,01,5.40
2010,05,07,05,02,5.40
2010,05,07,05,03,5.40
2010,05,07,05,04,5.40
2010,05,07,05,05,5.40
2010,05,07,05,06,5.40
2010,05,07,05,07,5.40
2010,05,07,05,08,5.40
2010,05,07,05,09,5.40
2010,05,07,05,10,5.40
2010,05,07,05,11,5.30
2010,05,07,05,12,5.30
2010,05,07,05,13,5.30
2010,05,07,05,14,5.30
2010,05,07,05,15,5.30
2010,05,07,05,16,5.30
2010,05,07,05,17,5.20
2010,05,07,05,18,5.20
2010,05,07,05,19,5.20
2010,05,07,05,20,5.20
2010,05,07,05,21,5.20
2010,05,07,05,22,5.20
2010,05,07,05,23,5.20
2010,05,07,05,24,5.20
2010,05,07,05,25,5.10
2010,05,07,05,26,5.10
2010,05,07,05,27,5.10
2010,05,07,05,28,5.10
2010,05,07,05,29,5.10
2010,05,07,05,30,5.10
2010,05,07,05,31,5.10
2010,05,07,05,32,5.10
2010,05,07,05,33,5.10
2010,05,07,05,34,5.10
2010,05,07,05,35,5.10
2010,05,07,05,36,5.10
2010,05,07,05,37,5.10
2010,05,07,05,38,5.10
2010,05,07,05,39,5.10
2010,05,07,05,40,5.10
2010,05,07,05,41,5.10
2010,05,07,05,42,5.10
2010,05,07,05,43,5.10
2010,05,07,05,44,5.10
2010,05,07,05,45,5.10
2010,05,07,05,46,5.10
2010,05,07,05,47,5.10
2010,05,07,05,48,5.10
2010,05,07,05,49,5.10
2010,05,07,05,50,5.10
2010,05,07,05,51,5.10
2010,05,07,05,52,5.10
2010,05,07,05,53,5.10
2010,05,07,05,54,5.10
2010,05,07,05,55,5.10
2010,05,07,05,56,5.10
2010,05,07,05,57,5.10
2010,05,07,05,58,5.10
2010,05,07,05,59,5.10
2010,05,07,06,00,5.10
2010,05,07,06,01,5.10
2010,05,07,06,02,5.10
2010,05,07,06,03,5.10
2010,05,07,06,04,5.10
2010,05,07,06,05,5.10
2010,05,07,06,06,5.10
2010,05,07,06,07,5.10
2010,05,07,06,08,5.10
2010,05,07,06,09,5.10
2010,05,07,06,10,5.10
2010,05,07,06,11,5.10
2010,05,07,06,12,5.10
2010,05,07,06,13,5.10
2010,05,07,06,14,5.10
2010,05,07,06,15,5.10
2010,05,07,06,16,5.10
2010,05,07,06,17,5.10
2010,05,07,06,18,5.10
2010,05,07,06,19,5.10
2010,05,07,06,20,5.10
2010,05,07,06,21,5.10
2010,05,07,06,22,5.10
2010,05,07,06,23,5.10
2010,05,07,06,24,5.10
2010,05,07,06,25,5.20
2010,05,07,06,26,5.20
2010,05,07,06,27,5.20
2010,05,07,06,28,5.20
2010,05,07,06,29,5.20
2010,05,07,06,30,5.20
2010,05,07,06,31,5.20
2010,05,07,06,32,5.20
2010,05,07,06,33,5.20
2010,05,07,06,34,5.20
2010,05,07,06,35,5.20
2010,05,07,06,36,5.30
2010,05,07,06,37,5.30
2010,05,07,06,38,5.30
2010,05,07,06,39,5.30
2010,05,07,06,40,5.30
2010,05,07,06,41,5.30
2010,05,07,06,42,5.30
2010,05,07,06,43,5.30
2010,05,07,06,44,5.30
2010,05,07,06,45,5.30
2010,05,07,06,46,5.30
2010,05,07,06,47,5.30
2010,05,07,06,48,5.30
2010,05,07,06,49,5.30
2010,05,07,06,50,5.40
2010,05,07,06,51,5.40
2010,05,07,06,52,5.40
2010,05,07,06,53,5.40
2010,05,07,06,54,5.40
2010,05,07,06,55,5.40
2010,05,07,06,56,5.50
2010,05,07,06,57,5.50
2010,05,07,06,58,5.50
2010,05,07,06,59,5.50
2010,05,07,07,00,5.50
2010,05,07,07,01,5.60
2010,05,07,07,02,5.60
2010,05,07,07,03,5.60
2010,05,07,07,04,5.60
2010,05,07,07,05,5.60
2010,05,07,07,06,5.70
2010,05,07,07,07,5.70
2010,05,07,07,08,5.70
2010,05,07,07,09,5.70
2010,05,07,07,10,5.70
2010,05,07,07,11,5.80
2010,05,07,07,12,5.80
2010,05,07,07,13,5.80
2010,05,07,07,14,5.80
2010,05,07,07,15,5.80
2010,05,07,07,16,5.80
2010,05,07,07,17,5.90
2010,05,07,07,18,5.90
2010,05,07,07,19,5.90
2010,05,07,07,20,5.90
2010,05,07,07,21,5.90
2010,05,07,07,22,6.00
2010,05,07,07,23,6.00
2010,05,07,07,24,6.00
2010,05,07,07,25,6.00
2010,05,07,07,26,6.10
2010,05,07,07,27,6.10
2010,05,07,07,28,6.10
2010,05,07,07,29,6.10
2010,05,07,07,30,6.20
2010,05,07,07,31,6.20
2010,05,07,07,32,6.20
2010,05,07,07,33,6.20
2010,05,07,07,34,6.30
2010,05,07,07,35,6.30
2010,05,07,07,36,6.30
2010,05,07,07,37,6.40
2010,05,07,07,38,6.40
2010,05,07,07,39,6.50
2010,05,07,07,40,6.50
2010,05,07,07,41,6.60
2010,05,07,07,42,6.60
2010,05,07,07,43,6.70
2010,05,07,07,44,6.70
2010,05,07,07,45,6.80
2010,05,07,07,46,6.80
2010,05,07,07,47,6.80
2010,05,07,07,48,6.90
2010,05,07,07,49,6.90
2010,05,07,07,50,6.90
2010,05,07,07,51,7.00
2010,05,07,07,52,7.00
2010,05,07,07,53,7.00
2010,05,07,07,54,7.10
2010,05,07,07,55,7.10
2010,05,07,07,56,7.10
2010,05,07,07,57,7.20
2010,05,07,07,58,7.20
2010,05,07,07,59,7.20
2010,05,07,08,00,7.20
2010,05,07,08,01,7.20
2010,05,07,08,02,7.20
2010,05,07,08,03,7.30
2010,05,07,08,04,7.30
2010,05,07,08,05,7.30
2010,05,07,08,06,7.40
2010,05,07,08,07,7.40
2010,05,07,08,08,7.50
2010,05,07,08,09,7.50
2010,05,07,08,10,7.50
2010,05,07,08,11,7.60
2010,05,07,08,12,7.60
2010,05,07,08,13,7.60
2010,05,07,08,14,7.60
2010,05,07,08,15,7.60
2010,05,07,08,16,7.70
2010,05,07,08,17,7.70
2010,05,07,08,18,7.70
2010,05,07,08,19,7.70
2010,05,07,08,20,7.80
2010,05,07,08,21,7.80
2010,05,07,08,22,7.80
2010,05,07,08,23,7.90
2010,05,07,08,24,7.90
2010,05,07,08,25,7.90
2010,05,07,08,26,7.90
2010,05,07,08,27,8.00
2010,05,07,08,28,8.00
2010,05,07,08,29,8.10
2010,05,07,08,30,8.10
2010,05,07,08,31,8.10
2010,05,07,08,32,8.20
2010,05,07,08,33,8.20
2010,05,07,08,34,8.20
2010,05,07,08,35,8.30
2010,05,07,08,36,8.30
2010,05,07,08,37,8.40
2010,05,07,08,38,8.40
2010,05,07,08,39,8.40
2010,05,07,08,40,8.50
2010,05,07,08,41,8.50
2010,05,07,08,42,8.50
2010,05,07,08,43,8.60
2010,05,07,08,44,8.60
2010,05,07,08,45,8.60
2010,05,07,08,46,8.60
2010,05,07,08,47,8.60
2010,05,07,08,48,8.70
2010,05,07,08,49,8.70
2010,05,07,08,50,8.70
2010,05,07,08,51,8.70
2010,05,07,08,52,8.70
2010,05,07,08,53,8.70
2010,05,07,08,54,8.70
2010,05,07,08,55,8.70
2010,05,07,08,56,8.80
2010,05,07,08,57,8.80
2010,05,07,08,58,8.90
2010,05,07,08,59,8.90
2010,05,07,09,00,8.90
2010,05,07,09,01,9.00
2010,05,07,09,02,9.00
2010,05,07,09,03,9.10
2010,05,07,09,04,9.10
2010,05,07,09,05,9.10
2010,05,07,09,06,9.10
2010,05,07,09,07,9.10
2010,05,07,09,08,9.20
2010,05,07,09,09,9.20
2010,05,07,09,10,9.20
2010,05,07,09,11,9.20
2010,05,07,09,12,9.20
2010,05,07,09,13,9.20
2010,05,07,09,14,9.20
2010,05,07,09,15,9.20
2010,05,07,09,16,9.20
2010,05,07,09,17,9.20
2010,05,07,09,18,9.30
2010,05,07,09,19,9.30
2010,05,07,09,20,9.30
2010,05,07,09,21,9.30
2010,05,07,09,22,9.30
2010,05,07,09,23,9.30
2010,05,07,09,24,9.30
2010,05,07,09,25,9.30
2010,05,07,09,26,9.30
2010,05,07,09,27,9.30
2010,05,07,09,28,9.20
2010,05,07,09,29,9.20
2010,05,07,09,30,9.20
2010,05,07,09,31,9.20
2010,05,07,09,32,9.20
2010,05,07,09,33,9.20
2010,05,07,09,34,9.20
2010,05,07,09,35,9.30
2010,05,07,09,36,9.30
2010,05,07,09,37,9.30
2010,05,07,09,38,9.30
2010,05,07,09,39,9.30
2010,05,07,09,40,9.30
2010,05,07,09,41,9.40
2010,05,07,09,42,9.40
2010,05,07,09,43,9.40
2010,05,07,09,44,9.40
2010,05,07,09,45,9.50
2010,05,07,09,46,9.50
2010,05,07,09,47,9.50
2010,05,07,09,48,9.50
2010,05,07,09,49,9.50
2010,05,07,09,50,9.60
2010,05,07,09,51,9.60
2010,05,07,09,52,9.70
2010,05,07,09,53,9.80
2010,05,07,09,54,9.80
2010,05,07,09,55,9.90
2010,05,07,09,56,10.00
2010,05,07,09,57,10.10
2010,05,07,09,58,10.10
2010,05,07,09,59,10.10
2010,05,07,10,00,10.20
2010,05,07,10,01,10.20
2010,05,07,10,02,10.30
2010,05,07,10,03,10.30
2010,05,07,10,04,10.40
2010,05,07,10,05,10.40
2010,05,07,10,06,10.40
2010,05,07,10,07,10.50
2010,05,07,10,08,10.60
2010,05,07,10,09,10.60
2010,05,07,10,10,10.60
2010,05,07,10,11,10.70
2010,05,07,10,12,10.70
2010,05,07,10,13,10.70
2010,05,07,10,14,10.80
2010,05,07,10,15,10.80
2010,05,07,10,16,10.80
2010,05,07,10,17,10.90
2010,05,07,10,18,10.90
2010,05,07,10,19,10.90
2010,05,07,10,20,11.00
2010,05,07,10,21,11.00
2010,05,07,10,22,11.10
2010,05,07,10,23,11.10
2010,05,07,10,24,11.20
2010,05,07,10,25,11.20
2010,05,07,10,26,11.30
2010,05,07,10,27,11.40
2010,05,07,10,28,11.50
2010,05,07,10,29,11.50
2010,05,07,10,30,11.60
2010,05,07,10,31,11.60
2010,05,07,10,32,11.70
2010,05,07,10,33,11.70
2010,05,07,10,34,11.80
2010,05,07,10,35,11.80
2010,05,07,10,36,11.80
2010,05,07,10,37,11.70
2010,05,07,10,38,11.70
2010,05,07,10,39,11.70
2010,05,07,10,40,11.70
2010,05,07,10,41,11.70
2010,05,07,10,42,11.70
2010,05,07,10,43,11.70
2010,05,07,10,44,11.70
2010,05,07,10,45,11.70
2010,05,07,10,46,11.70
2010,05,07,10,47,11.70
2010,05,07,10,48,11.80
2010,05,07,10,49,11.80
2010,05,07,10,50,11.80
2010,05,07,10,51,11.80
2010,05,07,10,52,11.70
2010,05,07,10,53,11.70
2010,05,07,10,54,11.80
2010,05,07,10,55,11.80
2010,05,07,10,56,11.90
2010,05,07,10,57,11.90
2010,05,07,10,58,12.00
2010,05,07,10,59,12.00
2010,05,07,11,00,12.10
2010,05,07,11,01,12.10
2010,05,07,11,02,12.10
2010,05,07,11,03,12.10
2010,05,07,11,04,12.10
2010,05,07,11,05,12.00
2010,05,07,11,06,12.00
2010,05,07,11,07,11.90
2010,05,07,11,08,11.80
2010,05,07,11,09,11.80
2010,05,07,11,10,11.80
2010,05,07,11,11,11.70
2010,05,07,11,12,11.70
2010,05,07,11,13,11.70
2010,05,07,11,14,11.80
2010,05,07,11,15,11.80
2010,05,07,11,16,11.80
2010,05,07,11,17,11.90
2010,05,07,11,18,11.90
2010,05,07,11,19,11.90
2010,05,07,11,20,12.00
2010,05,07,11,21,12.00
2010,05,07,11,22,12.10
2010,05,07,11,23,12.20
2010,05,07,11,24,12.30
2010,05,07,11,25,12.30
2010,05,07,11,26,12.40
2010,05,07,11,27,12.40
2010,05,07,11,28,12.40
2010,05,07,11,29,12.40
2010,05,07,11,30,12.40
2010,05,07,11,31,12.30
2010,05,07,11,32,12.30
2010,05,07,11,33,12.30
2010,05,07,11,34,12.30
2010,05,07,11,35,12.30
2010,05,07,11,36,12.30
2010,05,07,11,37,12.30
2010,05,07,11,38,12.30
2010,05,07,11,39,12.30
2010,05,07,11,40,12.30
2010,05,07,11,41,12.30
2010,05,07,11,42,12.30
2010,05,07,11,43,12.30
2010,05,07,11,44,12.40
2010,05,07,11,45,12.40
2010,05,07,11,46,12.50
2010,05,07,11,47,12.50
2010,05,07,11,48,12.60
2010,05,07,11,49,12.60
2010,05,07,11,50,12.70
2010,05,07,11,51,12.70
2010,05,07,11,52,12.80
2010,05,07,11,53,12.90
2010,05,07,11,54,12.90
2010,05,07,11,55,12.90
2010,05,07,11,56,12.90
2010,05,07,11,57,13.00
2010,05,07,11,58,13.00
2010,05,07,11,59,13.00
2010,05,07,12,00,13.10
2010,05,07,12,01,13.10
2010,05,07,12,02,13.10
2010,05,07,12,03,13.20
2010,05,07,12,04,13.30
2010,05,07,12,05,13.30
2010,05,07,12,06,13.40
2010,05,07,12,07,13.50
2010,05,07,12,08,13.60
2010,05,07,12,09,13.60
2010,05,07,12,10,13.60
2010,05,07,12,11,13.60
2010,05,07,12,12,13.70
2010,05,07,12,13,13.70
2010,05,07,12,14,13.70
2010,05,07,12,15,13.80
2010,05,07,12,16,13.80
2010,05,07,12,17,13.80
2010,05,07,12,18,13.80
2010,05,07,12,19,13.80
2010,05,07,12,20,13.80
2010,05,07,12,21,13.90
2010,05,07,12,22,13.90
2010,05,07,12,23,13.90
2010,05,07,12,24,13.90
2010,05,07,12,25,14.00
2010,05,07,12,26,14.00
2010,05,07,12,27,14.10
2010,05,07,12,28,14.10
2010,05,07,12,29,14.10
2010,05,07,12,30,14.20
2010,05,07,12,31,14.20
2010,05,07,12,32,14.20
2010,05,07,12,33,14.20
2010,05,07,12,34,14.20
2010,05,07,12,35,14.20
2010,05,07,12,36,14.30
2010,05,07,12,37,14.30
2010,05,07,12,38,14.30
2010,05,07,12,39,14.40
2010,05,07,12,40,14.40
2010,05,07,12,41,14.40
2010,05,07,12,42,14.50
2010,05,07,12,43,14.50
2010,05,07,12,44,14.60
2010,05,07,12,45,14.60
2010,05,07,12,46,14.70
2010,05,07,12,47,14.70
2010,05,07,12,48,14.70
2010,05,07,12,49,14.70
2010,05,07,12,50,14.60
2010,05,07,12,51,14.50
2010,05,07,12,52,14.50
2010,05,07,12,53,14.50
2010,05,07,12,54,14.60
2010,05,07,12,55,14.60
2010,05,07,12,56,14.60
2010,05,07,12,57,14.60
2010,05,07,12,58,14.60
2010,05,07,12,59,14.70
2010,05,07,13,00,14.70
2010,05,07,13,01,14.70
2010,05,07,13,02,14.70
2010,05,07,13,03,14.70
2010,05,07,13,04,14.70
2010,05,07,13,05,14.80
2010,05,07,13,06,14.80
2010,05,07,13,07,14.80
2010,05,07,13,08,14.90
2010,05,07,13,09,14.90
2010,05,07,13,10,15.00
2010,05,07,13,11,15.00
2010,05,07,13,12,15.10
2010,05,07,13,13,15.10
2010,05,07,13,14,15.00
2010,05,07,13,15,15.00
2010,05,07,13,16,15.00
2010,05,07,13,17,15.00
2010,05,07,13,18,15.10
2010,05,07,13,19,15.10
2010,05,07,13,20,15.10
2010,05,07,13,21,15.20
2010,05,07,13,22,15.20
2010,05,07,13,23,15.30
2010,05,07,13,24,15.30
2010,05,07,13,25,15.30
2010,05,07,13,26,15.30
2010,05,07,13,27,15.20
2010,05,07,13,28,15.20
2010,05,07,13,29,15.20
2010,05,07,13,30,15.10
2010,05,07,13,31,15.20
2010,05,07,13,32,15.20
2010,05,07,13,33,15.30
2010,05,07,13,34,15.30
2010,05,07,13,35,15.30
2010,05,07,13,36,15.40
2010,05,07,13,37,15.40
2010,05,07,13,38,15.50
2010,05,07,13,39,15.50
2010,05,07,13,40,15.60
2010,05,07,13,41,15.60
2010,05,07,13,42,15.60
2010,05,07,13,43,15.60
2010,05,07,13,44,15.60
2010,05,07,13,45,15.50
2010,05,07,13,46,15.40
2010,05,07,13,47,15.40
2010,05,07,13,48,15.40
2010,05,07,13,49,15.30
2010,05,07,13,50,15.30
2010,05,07,13,51,15.20
2010,05,07,13,52,15.20
2010,05,07,13,53,15.30
2010,05,07,13,54,15.30
2010,05,07,13,55,15.30
2010,05,07,13,56,15.30
2010,05,07,13,57,15.30
2010,05,07,13,58,15.30
2010,05,07,13,59,15.30
2010,05,07,14,00,15.30
2010,05,07,14,01,15.30
2010,05,07,14,02,15.30
2010,05,07,14,03,15.30
2010,05,07,14,04,15.30
2010,05,07,14,05,15.30
2010,05,07,14,06,15.30
2010,05,07,14,07,15.20
2010,05,07,14,08,15.20
2010,05,07,14,09,15.20
2010,05,07,14,10,15.20
2010,05,07,14,11,15.10
2010,05,07,14,12,15.10
2010,05,07,14,13,15.10
2010,05,07,14,14,15.20
2010,05,07,14,15,15.30
2010,05,07,14,16,15.50
2010,05,07,14,17,15.60
2010,05,07,14,18,15.60
2010,05,07,14,19,15.70
2010,05,07,14,20,15.70
2010,05,07,14,21,15.70
2010,05,07,14,22,15.70
2010,05,07,14,23,15.60
2010,05,07,14,24,15.60
2010,05,07,14,25,15.70
2010,05,07,14,26,15.70
2010,05,07,14,27,15.80
2010,05,07,14,28,15.80
2010,05,07,14,29,15.80
2010,05,07,14,30,15.80
2010,05,07,14,31,15.80
2010,05,07,14,32,15.80
2010,05,07,14,33,15.80
2010,05,07,14,34,15.80
2010,05,07,14,35,15.80
2010,05,07,14,36,15.70
2010,05,07,14,37,15.70
2010,05,07,14,38,15.70
2010,05,07,14,39,15.70
2010,05,07,14,40,15.70
2010,05,07,14,41,15.80
2010,05,07,14,42,15.80
2010,05,07,14,43,15.90
2010,05,07,14,44,16.00
2010,05,07,14,45,16.10
2010,05,07,14,46,16.20
2010,05,07,14,47,16.20
2010,05,07,14,48,16.30
2010,05,07,14,49,16.30
2010,05,07,14,50,16.30
2010,05,07,14,51,16.30
2010,05,07,14,52,16.40
2010,05,07,14,53,16.40
2010,05,07,14,54,16.50
2010,05,07,14,55,16.50
2010,05,07,14,56,16.50
2010,05,07,14,57,16.50
2010,05,07,14,58,16.50
2010,05,07,14,59,16.50
2010,05,07,15,00,16.40
2010,05,07,15,01,16.50
2010,05,07,15,02,16.50
2010,05,07,15,03,16.50
2010,05,07,15,04,16.50
2010,05,07,15,05,16.40
2010,05,07,15,06,16.50
2010,05,07,15,07,16.50
2010,05,07,15,08,16.60
2010,05,07,15,09,16.60
2010,05,07,15,10,16.60
2010,05,07,15,11,16.60
2010,05,07,15,12,16.60
2010,05,07,15,13,16.60
2010,05,07,15,14,16.60
2010,05,07,15,15,16.60
2010,05,07,15,16,16.60
2010,05,07,15,17,16.60
2010,05,07,15,18,16.60
2010,05,07,15,19,16.60
2010,05,07,15,20,16.60
2010,05,07,15,21,16.60
2010,05,07,15,22,16.60
2010,05,07,15,23,16.60
2010,05,07,15,24,16.70
2010,05,07,15,25,16.70
2010,05,07,15,26,16.70
2010,05,07,15,27,16.70
2010,05,07,15,28,16.70
2010,05,07,15,29,16.70
2010,05,07,15,30,16.70
2010,05,07,15,31,16.70
2010,05,07,15,32,16.70
2010,05,07,15,33,16.80
2010,05,07,15,34,16.80
2010,05,07,15,35,16.80
2010,05,07,15,36,16.80
2010,05,07,15,37,16.80
2010,05,07,15,38,16.80
2010,05,07,15,39,16.80
2010,05,07,15,40,16.80
2010,05,07,15,41,16.80
2010,05,07,15,42,16.80
2010,05,07,15,43,16.80
2010,05,07,15,44,16.80
2010,05,07,15,45,16.80
2010,05,07,15,46,16.80
2010,05,07,15,47,16.80
2010,05,07,15,48,16.80
2010,05,07,15,49,16.80
2010,05,07,15,50,16.70
2010,05,07,15,51,16.70
2010,05,07,15,52,16.70
2010,05,07,15,53,16.80
2010,05,07,15,54,16.80
2010,05,07,15,55,16.90
2010,05,07,15,56,17.00
2010,05,07,15,57,17.00
2010,05,07,15,58,17.10
2010,05,07,15,59,17.20
2010,05,07,16,00,17.20
2010,05,07,16,01,17.30
2010,05,07,16,02,17.20
2010,05,07,16,03,17.10
2010,05,07,16,04,17.10
2010,05,07,16,05,17.10
2010,05,07,16,06,17.10
2010,05,07,16,07,17.10
2010,05,07,16,08,17.10
2010,05,07,16,09,17.10
2010,05,07,16,10,17.10
2010,05,07,16,11,17.20
2010,05,07,16,12,17.20
2010,05,07,16,13,17.20
2010,05,07,16,14,17.20
2010,05,07,16,15,17.20
2010,05,07,16,16,17.10
2010,05,07,16,17,17.00
2010,05,07,16,18,17.00
2010,05,07,16,19,17.00
2010,05,07,16,20,17.00
2010,05,07,16,21,17.10
2010,05,07,16,22,17.10
2010,05,07,16,23,17.20
2010,05,07,16,24,17.20
2010,05,07,16,25,17.20
2010,05,07,16,26,17.30
2010,05,07,16,27,17.30
2010,05,07,16,28,17.30
2010,05,07,16,29,17.30
2010,05,07,16,30,17.30
2010,05,07,16,31,17.30
2010,05,07,16,32,17.30
2010,05,07,16,33,17.40
2010,05,07,16,34,17.50
2010,05,07,16,35,17.50
2010,05,07,16,36,17.50
2010,05,07,16,37,17.50
2010,05,07,16,38,17.50
2010,05,07,16,39,17.40
2010,05,07,16,40,17.40
2010,05,07,16,41,17.50
2010,05,07,16,42,17.50
2010,05,07,16,43,17.40
2010,05,07,16,44,17.40
2010,05,07,16,45,17.40
2010,05,07,16,46,17.40
2010,05,07,16,47,17.30
2010,05,07,16,48,17.30
2010,05,07,16,49,17.30
2010,05,07,16,50,17.30
2010,05,07,16,51,17.30
2010,05,07,16,52,17.30
2010,05,07,16,53,17.30
2010,05,07,16,54,17.30
2010,05,07,16,55,17.30
2010,05,07,16,56,17.30
2010,05,07,16,57,17.30
2010,05,07,16,58,17.30
2010,05,07,16,59,17.30
2010,05,07,17,00,17.30
2010,05,07,17,01,17.30
2010,05,07,17,02,17.40
2010,05,07,17,03,17.40
2010,05,07,17,04,17.40
2010,05,07,17,05,17.30
2010,05,07,17,06,17.30
2010,05,07,17,07,17.30
2010,05,07,17,08,17.30
2010,05,07,17,09,17.30
2010,05,07,17,10,17.30
2010,05,07,17,11,17.20
2010,05,07,17,12,17.20
2010,05,07,17,13,17.20
2010,05,07,17,14,17.30
2010,05,07,17,15,17.30
2010,05,07,17,16,17.30
2010,05,07,17,17,17.30
2010,05,07,17,18,17.30
2010,05,07,17,19,17.30
2010,05,07,17,20,17.40
2010,05,07,17,21,17.40
2010,05,07,17,22,17.40
2010,05,07,17,23,17.40
2010,05,07,17,24,17.40
2010,05,07,17,25,17.40
2010,05,07,17,26,17.40
2010,05,07,17,27,17.40
2010,05,07,17,28,17.40
2010,05,07,17,29,17.40
2010,05,07,17,30,17.30
2010,05,07,17,31,17.30
2010,05,07,17,32,17.20
2010,05,07,17,33,17.20
2010,05,07,17,34,17.10
2010,05,07,17,35,17.00
2010,05,07,17,36,17.00
2010,05,07,17,37,16.90
2010,05,07,17,38,16.90
2010,05,07,17,39,16.90
2010,05,07,17,40,16.90
2010,05,07,17,41,16.90
2010,05,07,17,42,16.90
2010,05,07,17,43,16.80
2010,05,07,17,44,16.80
2010,05,07,17,45,16.80